Location: *
(42.0175°N, 9.4056°E)
Time: 20:55:07
(UTC+00:00)

Exosat Rocket - Pass Details

Date: 25 August 2019
Orbit: 762 x 2513 km, 72.3° (Epoch: 23 October)

Event Time Altitude Azimuth Distance (km) Brightness Sun altitude
Rises 18:36:34 0° 338° (NNW) 4,825 8.3 -5.9°
Reaches altitude 10° 18:40:09 10° 343° (NNW) 3,563 7.5 -6.5°
Maximum altitude 18:48:08 54° 59° (ENE) 1,318 4.5 -7.9°
Drops below altitude 10° 18:53:51 10° 137° (SE) 2,574 5.7 -8.8°
Enters shadow 18:54:19 - 138° (SE) 2,738 5.8 -8.9°
